Location: Unspecified
(0.0000°N, 0.0000°E)
Time: 09:12:14
(UTC+00:00)

Explorer 11/Cluster Stage 4 - Pass Details

Date: 21 July 2020
Orbit: 467 x 1259 km, 28.8° (Epoch: 03 August)

Event Time Altitude Azimuth Distance (km) Brightness Sun altitude
Rises 04:07:36 0° 252° (WSW) 2,987 - -27.7°
Reaches altitude 10° 04:10:19 10° 260° (W) 1,947 - -27.1°
Maximum altitude 04:14:23 36° 327° (NNW) 857 - -26.1°
Exits shadow 04:15:34 29° 5° (N) 967 7.2 -25.9°
Drops below altitude 10° 04:17:54 10° 36° (NE) 1,675 9.0 -25.3°
Sets 04:20:05 0° 45° (NE) 2,507 10.3 -24.8°
